| time (UTC) | temp C | wind direction | speed KPH | gust KPH | rain 1hr cm | rain 24hr cm | rain mn cm | humidity % | barometer mb |
| 20260505093325 | 15 | 155 | 0.0 | 3.2 | 0.00 | 0.00 | 0.00 | 78 | 1010.4 |
| 20260505092850 | 15 | 185 | 0.0 | 6.4 | 0.00 | 0.00 | 0.00 | 78 | 1010.3 |
| 20260505092332 | 15 | 211 | 1.6 | 6.4 | 0.00 | 0.00 | 0.00 | 78 | 1010.3 |
| 20260505091835 | 15 | 143 | 1.6 | 4.8 | 0.00 | 0.00 | 0.00 | 78 | 1010.3 |
| 20260505091319 | 15 | 142 | 0.0 | 4.8 | 0.00 | 0.00 | 0.00 | 78 | 1010.4 |
| 20260505090821 | 15 | 135 | 1.6 | 6.4 | 0.00 | 0.00 | 0.00 | 78 | 1010.4 |
| 20260505090326 | 15 | 158 | 1.6 | 6.4 | 0.00 | 0.00 | 0.00 | 78 | 1010.4 |
| 20260505085830 | 15 | 155 | 0.0 | 6.4 | 0.00 | 0.00 | 0.00 | 78 | 1010.3 |
| 20260505085334 | 15 | 179 | 0.0 | 8.0 | 0.00 | 0.00 | 0.00 | 78 | 1010.3 |
| 20260505084817 | 15 | 153 | 3.2 | 8.0 | 0.00 | 0.00 | 0.00 | 78 | 1010.3 |
| 20260505084323 | 15 | 221 | 1.6 | 6.4 | 0.00 | 0.00 | 0.00 | 79 | 1010.3 |
| 20260505083826 | 15 | 207 | 1.6 | 9.7 | 0.00 | 0.00 | 0.00 | 79 | 1010.3 |
| 20260505083329 | 15 | 153 | 3.2 | 9.7 | 0.00 | 0.00 | 0.00 | 80 | 1010.4 |
| 20260505082812 | 15 | 161 | 0.0 | 1.6 | 0.00 | 0.00 | 0.00 | 79 | 1010.4 |
| 20260505082317 | 15 | 200 | 0.0 | 1.6 | 0.00 | 0.00 | 0.00 | 79 | 1010.4 |
| 20260505081821 | 15 | 142 | 0.0 | 1.6 | 0.00 | 0.00 | 0.00 | 79 | 1010.5 |
| 20260505081324 | 15 | 154 | 0.0 | 3.2 | 0.00 | 0.00 | 0.00 | 78 | 1010.5 |
| 20260505080829 | 15 | 163 | 0.0 | 3.2 | 0.00 | 0.00 | 0.00 | 78 | 1010.5 |
| 20260505080332 | 15 | 200 | 0.0 | 6.4 | 0.00 | 0.00 | 0.00 | 77 | 1010.6 |
| 20260505075815 | 16 | 164 | 3.2 | 6.4 | 0.00 | 0.00 | 0.00 | 77 | 1010.6 |
| 20260505075317 | 16 | 35 | 0.0 | 11.3 | 0.00 | 0.00 | 0.00 | 76 | 1010.6 |
| 20260505074820 | 15 | 151 | 1.6 | 11.3 | 0.00 | 0.00 | 0.00 | 76 | 1010.4 |
| 20260505074324 | 15 | 146 | 3.2 | 6.4 | 0.00 | 0.00 | 0.00 | 77 | 1010.2 |
| 20260505073828 | 15 | 185 | 1.6 | 6.4 | 0.00 | 0.00 | 0.00 | 77 | 1010.2 |
| 20260505073331 | 15 | 184 | 4.8 | 6.4 | 0.00 | 0.00 | 0.00 | 78 | 1010.3 |
| 20260505072814 | 15 | 145 | 3.2 | 6.4 | 0.00 | 0.00 | 0.00 | 78 | 1010.4 |
| 20260505072317 | 15 | 145 | 1.6 | 3.2 | 0.00 | 0.00 | 0.00 | 78 | 1010.5 |
| 20260505071821 | 14 | 173 | 1.6 | 3.2 | 0.00 | 0.00 | 0.00 | 79 | 1010.5 |
| 20260505071324 | 14 | 156 | 1.6 | 3.2 | 0.00 | 0.00 | 0.00 | 79 | 1010.5 |
| 20260505070828 | 14 | 165 | 0.0 | 3.2 | 0.00 | 0.00 | 0.00 | 80 | 1010.5 |
| 20260505070330 | 13 | 148 | 0.0 | 3.2 | 0.00 | 0.00 | 0.00 | 80 | 1010.5 |
| 20260505065816 | 13 | 223 | 0.0 | 3.2 | 0.00 | 0.00 | 0.00 | 81 | 1010.4 |
| 20260505065321 | 13 | 133 | 0.0 | 1.6 | 0.00 | 0.00 | 0.00 | 81 | 1010.4 |
| 20260505064846 | 13 | 148 | 0.0 | 1.6 | 0.00 | 0.00 | 0.00 | 81 | 1010.3 |
| 20260505064329 | 13 | 136 | 0.0 | 1.6 | 0.00 | 0.00 | 0.00 | 81 | 1010.3 |
| 20260505063812 | 13 | 154 | 0.0 | 0.0 | 0.00 | 0.00 | 0.00 | 80 | 1010.2 |
| 20260505063336 | 13 | 149 | 0.0 | 1.6 | 0.00 | 0.00 | 0.00 | 79 | 1010.2 |
| 20260505062819 | 13 | 149 | 0.0 | 1.6 | 0.00 | 0.00 | 0.00 | 78 | 1010.2 |
| 20260505062322 | 13 | 148 | 0.0 | 0.0 | 0.00 | 0.00 | 0.00 | 78 | 1010.3 |
| 20260505061825 | 13 | 148 | 0.0 | 0.0 | 0.00 | 0.00 | 0.00 | 77 | 1010.2 |
| 20260505061328 | 13 | 148 | 0.0 | 0.0 | 0.00 | 0.00 | 0.00 | 76 | 1010.2 |
| 20260505060829 | 14 | 148 | 0.0 | 0.0 | 0.00 | 0.00 | 0.00 | 75 | 1010.2 |
| 20260505060312 | 14 | 148 | 0.0 | 0.0 | 0.00 | 0.00 | 0.00 | 75 | 1010.2 |
| 20260505055816 | 14 | 148 | 0.0 | 1.6 | 0.00 | 0.00 | 0.00 | 75 | 1010.3 |
| 20260505055341 | 14 | 148 | 0.0 | 1.6 | 0.00 | 0.00 | 0.00 | 74 | 1010.3 |
| 20260505054824 | 15 | 148 | 0.0 | 1.6 | 0.00 | 0.00 | 0.00 | 74 | 1010.3 |
| 20260505054328 | 15 | 148 | 0.0 | 3.2 | 0.00 | 0.00 | 0.00 | 73 | 1010.3 |
| 20260505053853 | 15 | 148 | 0.0 | 3.2 | 0.00 | 0.00 | 0.00 | 73 | 1010.4 |
| 20260505053316 | 15 | 145 | 1.6 | 4.8 | 0.00 | 0.00 | 0.00 | 73 | 1010.4 |
| 20260505052820 | 15 | 157 | 0.0 | 4.8 | 0.00 | 0.00 | 0.00 | 73 | 1010.4 |
| 20260505052325 | 15 | 166 | 1.6 | 3.2 | 0.00 | 0.00 | 0.00 | 73 | 1010.4 |
| 20260505051828 | 15 | 151 | 0.0 | 3.2 | 0.00 | 0.00 | 0.00 | 72 | 1010.5 |
| 20260505051352 | 15 | 143 | 0.0 | 1.6 | 0.00 | 0.00 | 0.00 | 71 | 1010.4 |
| 20260505050814 | 15 | 143 | 0.0 | 1.6 | 0.00 | 0.00 | 0.00 | 71 | 1010.4 |
| 20260505050316 | 15 | 170 | 0.0 | 1.6 | 0.00 | 0.00 | 0.00 | 70 | 1010.4 |
| 20260505041330 | 16 | 176 | 3.2 | 14.5 | 0.00 | 0.00 | 0.00 | 68 | 1010.2 |
| 20260505040814 | 16 | 147 | 4.8 | 9.7 | 0.00 | 0.00 | 0.00 | 68 | 1010.3 |
| 20260505040319 | 16 | 157 | 3.2 | 11.3 | 0.00 | 0.00 | 0.00 | 68 | 1010.2 |
| 20260505035821 | 16 | 165 | 6.4 | 11.3 | 0.00 | 0.00 | 0.00 | 68 | 1010.3 |
| 20260505035326 | 16 | 145 | 1.6 | 8.0 | 0.00 | 0.00 | 0.00 | 67 | 1010.1 |
| 20260505034831 | 16 | 45 | 1.6 | 6.4 | 0.00 | 0.00 | 0.00 | 67 | 1010.2 |
| 20260505034335 | 16 | 148 | 1.6 | 8.0 | 0.00 | 0.00 | 0.00 | 67 | 1010.2 |
| 20260505033818 | 16 | 153 | 3.2 | 8.0 | 0.00 | 0.00 | 0.00 | 66 | 1010.2 |
| 20260505033323 | 16 | 175 | 3.2 | 9.7 | 0.00 | 0.00 | 0.00 | 66 | 1010.2 |
| 20260505032827 | 16 | 155 | 3.2 | 9.7 | 0.00 | 0.00 | 0.00 | 65 | 1010.2 |
| 20260505032331 | 16 | 191 | 3.2 | 11.3 | 0.00 | 0.00 | 0.00 | 65 | 1010.2 |
| 20260505031835 | 16 | 156 | 3.2 | 11.3 | 0.00 | 0.00 | 0.00 | 64 | 1010.2 |
| 20260505031316 | 16 | 178 | 4.8 | 9.7 | 0.00 | 0.00 | 0.00 | 63 | 1010.2 |
| 20260505030820 | 16 | 140 | 3.2 | 9.7 | 0.00 | 0.00 | 0.00 | 63 | 1010.1 |
| 20260505030343 | 16 | 203 | 3.2 | 9.7 | 0.00 | 0.00 | 0.00 | 61 | 1010.2 |
| 20260505025825 | 16 | 154 | 1.6 | 8.0 | 0.00 | 0.00 | 0.00 | 59 | 1010.2 |
| 20260505025327 | 16 | 155 | 4.8 | 8.0 | 0.00 | 0.00 | 0.00 | 58 | 1010.2 |
| 20260505024830 | 16 | 168 | 1.6 | 8.0 | 0.00 | 0.00 | 0.00 | 57 | 1010.4 |
| 20260505024313 | 16 | 219 | 1.6 | 8.0 | 0.00 | 0.00 | 0.00 | 55 | 1010.3 |
| 20260505023815 | 17 | 191 | 3.2 | 8.0 | 0.00 | 0.00 | 0.00 | 54 | 1010.4 |
| 20260505023340 | 17 | 150 | 1.6 | 8.0 | 0.00 | 0.00 | 0.00 | 53 | 1010.5 |
| 20260505022824 | 17 | 184 | 1.6 | 8.0 | 0.00 | 0.00 | 0.00 | 52 | 1010.5 |
| 20260505022327 | 17 | 204 | 1.6 | 6.4 | 0.00 | 0.00 | 0.00 | 50 | 1010.5 |
| 20260505021831 | 17 | 167 | 1.6 | 6.4 | 0.00 | 0.00 | 0.00 | 49 | 1010.5 |
| 20260505021315 | 17 | 174 | 3.2 | 6.4 | 0.00 | 0.00 | 0.00 | 49 | 1010.4 |
| 20260505020819 | 17 | 162 | 1.6 | 8.0 | 0.00 | 0.00 | 0.00 | 48 | 1010.4 |
| 20260505020324 | 17 | 191 | 3.2 | 8.0 | 0.00 | 0.00 | 0.00 | 48 | 1010.3 |
| 20260505015828 | 18 | 160 | 1.6 | 6.4 | 0.00 | 0.00 | 0.00 | 48 | 1010.3 |
| 20260505015332 | 18 | 126 | 3.2 | 9.7 | 0.00 | 0.00 | 0.00 | 48 | 1010.2 |
| 20260505014835 | 18 | 159 | 4.8 | 9.7 | 0.00 | 0.00 | 0.00 | 48 | 1010.3 |
| 20260505014317 | 17 | 173 | 3.2 | 8.0 | 0.00 | 0.00 | 0.00 | 49 | 1010.3 |
| 20260505013840 | 17 | 209 | 3.2 | 6.4 | 0.00 | 0.00 | 0.00 | 50 | 1010.3 |
| 20260505013323 | 18 | 147 | 1.6 | 6.4 | 0.00 | 0.00 | 0.00 | 50 | 1010.3 |
| 20260505012825 | 18 | 141 | 1.6 | 6.4 | 0.00 | 0.00 | 0.00 | 50 | 1010.3 |
| 20260505012329 | 18 | 200 | 1.6 | 6.4 | 0.00 | 0.00 | 0.00 | 51 | 1010.2 |
| 20260505011813 | 18 | 224 | 1.6 | 6.4 | 0.00 | 0.00 | 0.00 | 51 | 1010.1 |
| 20260505011317 | 18 | 160 | 1.6 | 6.4 | 0.00 | 0.00 | 0.00 | 52 | 1010.0 |
| 20260505010821 | 18 | 148 | 1.6 | 6.4 | 0.00 | 0.00 | 0.00 | 52 | 1009.9 |
| 20260505010323 | 18 | 148 | 3.2 | 6.4 | 0.00 | 0.00 | 0.00 | 52 | 1009.9 |
| 20260505005826 | 18 | 155 | 1.6 | 6.4 | 0.00 | 0.00 | 0.00 | 52 | 1009.9 |
| 20260505005330 | 18 | 174 | 3.2 | 6.4 | 0.00 | 0.00 | 0.00 | 52 | 1009.8 |
| 20260505004814 | 18 | 124 | 0.0 | 6.4 | 0.00 | 0.00 | 0.00 | 52 | 1009.8 |
| 20260505004318 | 18 | 155 | 1.6 | 6.4 | 0.00 | 0.00 | 0.00 | 52 | 1009.8 |
| 20260505003822 | 18 | 131 | 1.6 | 6.4 | 0.00 | 0.00 | 0.00 | 51 | 1009.8 |
| 20260505003326 | 18 | 165 | 0.0 | 4.8 | 0.00 | 0.00 | 0.00 | 50 | 1009.7 |
| 20260505002831 | 18 | 210 | 0.0 | 3.2 | 0.00 | 0.00 | 0.00 | 49 | 1009.6 |
| 20260505002316 | 18 | 197 | 1.6 | 4.8 | 0.00 | 0.00 | 0.00 | 48 | 1009.6 |
| 20260505001820 | 19 | 162 | 1.6 | 4.8 | 0.00 | 0.00 | 0.00 | 47 | 1009.6 |
| 20260505001325 | 19 | 155 | 1.6 | 3.2 | 0.00 | 0.00 | 0.00 | 47 | 1009.6 |
| 20260505000812 | 19 | 144 | 0.0 | 3.2 | 0.00 | 0.00 | 0.00 | 47 | 1009.5 |
| 20260505000352 | 19 | 163 | 1.6 | 3.2 | 0.00 | 0.00 | 0.00 | 46 | 1009.5 |
| 20260504235815 | 20 | 168 | 0.0 | 3.2 | 0.00 | 0.00 | 0.00 | 45 | 1009.5 |
| 20260504235337 | 20 | 143 | 0.0 | 4.8 | 0.00 | 0.00 | 0.00 | 45 | 1009.5 |
| 20260504234819 | 20 | 158 | 1.6 | 4.8 | 0.00 | 0.00 | 0.00 | 43 | 1009.5 |
| 20260504234343 | 20 | 154 | 1.6 | 4.8 | 0.00 | 0.00 | 0.00 | 43 | 1009.5 |
| 20260504233826 | 21 | 161 | 1.6 | 4.8 | 0.00 | 0.00 | 0.00 | 42 | 1009.5 |
| 20260504233330 | 21 | 158 | 1.6 | 4.8 | 0.00 | 0.00 | 0.00 | 41 | 1009.5 |
| 20260504232813 | 21 | 141 | 3.2 | 4.8 | 0.00 | 0.00 | 0.00 | 40 | 1009.4 |
| 20260504232316 | 21 | 146 | 1.6 | 8.0 | 0.00 | 0.00 | 0.00 | 40 | 1009.4 |
| 20260504231818 | 21 | 134 | 3.2 | 8.0 | 0.00 | 0.00 | 0.00 | 40 | 1009.4 |
| 20260504231320 | 21 | 137 | 1.6 | 6.4 | 0.00 | 0.00 | 0.00 | 39 | 1009.4 |
| 20260504230824 | 21 | 208 | 3.2 | 6.4 | 0.00 | 0.00 | 0.00 | 39 | 1009.4 |
| 20260504230329 | 21 | 233 | 1.6 | 8.0 | 0.00 | 0.00 | 0.00 | 39 | 1009.5 |
| 20260504225813 | 21 | 203 | 1.6 | 8.0 | 0.00 | 0.00 | 0.00 | 39 | 1009.4 |
| 20260504225319 | 22 | 156 | 1.6 | 8.0 | 0.00 | 0.00 | 0.00 | 38 | 1009.5 |
| 20260504224823 | 22 | 155 | 1.6 | 8.0 | 0.00 | 0.00 | 0.00 | 38 | 1009.4 |
| 20260504224326 | 22 | 203 | 1.6 | 8.0 | 0.00 | 0.00 | 0.00 | 38 | 1009.4 |
| 20260504223851 | 22 | 230 | 1.6 | 9.7 | 0.00 | 0.00 | 0.00 | 38 | 1009.4 |
| 20260504223334 | 22 | 166 | 3.2 | 9.7 | 0.00 | 0.00 | 0.00 | 38 | 1009.4 |
| 20260504222816 | 22 | 162 | 4.8 | 11.3 | 0.00 | 0.00 | 0.00 | 37 | 1009.4 |
| 20260504222319 | 22 | 224 | 6.4 | 11.3 | 0.00 | 0.00 | 0.00 | 37 | 1009.4 |
| 20260504221824 | 22 | 164 | 4.8 | 12.9 | 0.00 | 0.00 | 0.00 | 36 | 1009.4 |
| 20260504221328 | 22 | 144 | 3.2 | 12.9 | 0.00 | 0.00 | 0.00 | 36 | 1009.4 |
| 20260504220830 | 22 | 156 | 3.2 | 11.3 | 0.00 | 0.00 | 0.00 | 36 | 1009.4 |
| 20260504220313 | 23 | 168 | 4.8 | 11.3 | 0.00 | 0.00 | 0.00 | 35 | 1009.5 |
| 20260504215816 | 23 | 132 | 1.6 | 11.3 | 0.00 | 0.00 | 0.00 | 35 | 1009.5 |
| 20260504215322 | 23 | 164 | 1.6 | 11.3 | 0.00 | 0.00 | 0.00 | 35 | 1009.6 |
| 20260504214825 | 23 | 156 | 4.8 | 19.3 | 0.00 | 0.00 | 0.00 | 34 | 1009.5 |
| 20260504214315 | 23 | 103 | 1.6 | 19.3 | 0.00 | 0.00 | 0.00 | 34 | 1009.6 |
| 20260504213816 | 23 | 277 | 1.6 | 12.9 | 0.00 | 0.00 | 0.00 | 35 | 1009.6 |
| 20260504213319 | 23 | 177 | 3.2 | 12.9 | 0.00 | 0.00 | 0.00 | 34 | 1009.6 |
| 20260504212821 | 23 | 139 | 8.0 | 19.3 | 0.00 | 0.00 | 0.00 | 33 | 1009.7 |
| 20260504212326 | 23 | 155 | 4.8 | 19.3 | 0.00 | 0.00 | 0.00 | 34 | 1009.6 |
| 20260504211826 | 23 | 172 | 4.8 | 20.9 | 0.00 | 0.00 | 0.00 | 34 | 1009.7 |
| 20260504211331 | 24 | 227 | 8.0 | 20.9 | 0.00 | 0.00 | 0.00 | 33 | 1009.6 |
| 20260504210815 | 24 | 171 | 3.2 | 11.3 | 0.00 | 0.00 | 0.00 | 34 | 1009.6 |
| 20260504210319 | 24 | 166 | 3.2 | 9.7 | 0.00 | 0.00 | 0.00 | 33 | 1009.5 |
| 20260504205824 | 24 | 49 | 3.2 | 12.9 | 0.00 | 0.00 | 0.00 | 34 | 1009.5 |
| 20260504205348 | 23 | 53 | 3.2 | 14.5 | 0.00 | 0.00 | 0.00 | 33 | 1009.5 |
| 20260504204831 | 23 | 82 | 6.4 | 20.9 | 0.00 | 0.00 | 0.00 | 33 | 1009.6 |
| 20260504204315 | 24 | 165 | 8.0 | 20.9 | 0.00 | 0.00 | 0.00 | 33 | 1009.6 |
| 20260504203819 | 24 | 150 | 1.6 | 12.9 | 0.00 | 0.00 | 0.00 | 34 | 1009.6 |
| 20260504203322 | 24 | 125 | 1.6 | 12.9 | 0.00 | 0.00 | 0.00 | 34 | 1009.7 |
| 20260504202827 | 24 | 302 | 1.6 | 14.5 | 0.00 | 0.00 | 0.00 | 35 | 1009.7 |
| 20260504202333 | 23 | 165 | 1.6 | 16.1 | 0.00 | 0.00 | 0.00 | 35 | 1009.7 |
| 20260504201814 | 23 | 49 | 3.2 | 19.3 | 0.00 | 0.00 | 0.00 | 34 | 1009.8 |
| 20260504201318 | 23 | 60 | 4.8 | 19.3 | 0.00 | 0.00 | 0.00 | 34 | 1009.9 |
| 20260504200821 | 23 | 248 | 3.2 | 14.5 | 0.00 | 0.00 | 0.00 | 33 | 1010.0 |
| 20260504200326 | 23 | 286 | 4.8 | 9.7 | 0.00 | 0.00 | 0.00 | 33 | 1010.1 |
| 20260504195830 | 23 | 215 | 3.2 | 16.1 | 0.00 | 0.00 | 0.00 | 34 | 1010.0 |
| 20260504195314 | 23 | 23 | 4.8 | 16.1 | 0.00 | 0.00 | 0.00 | 33 | 1010.1 |
| 20260504194817 | 23 | 156 | 3.2 | 17.7 | 0.00 | 0.00 | 0.00 | 35 | 1010.1 |
| 20260504194322 | 23 | 68 | 3.2 | 17.7 | 0.00 | 0.00 | 0.00 | 34 | 1010.2 |
| 20260504193826 | 23 | 160 | 6.4 | 17.7 | 0.00 | 0.00 | 0.00 | 33 | 1010.3 |
| 20260504193330 | 23 | 157 | 3.2 | 17.7 | 0.00 | 0.00 | 0.00 | 36 | 1010.3 |
| 20260504192852 | 23 | 223 | 4.8 | 12.9 | 0.00 | 0.00 | 0.00 | 33 | 1010.4 |
| 20260504192314 | 23 | 346 | 3.2 | 9.7 | 0.00 | 0.00 | 0.00 | 34 | 1010.5 |
| 20260504191818 | 23 | 15 | 3.2 | 16.1 | 0.00 | 0.00 | 0.00 | 36 | 1010.6 |
| 20260504191322 | 23 | 177 | 3.2 | 16.1 | 0.00 | 0.00 | 0.00 | 35 | 1010.6 |
| 20260504190826 | 23 | 130 | 3.2 | 16.1 | 0.00 | 0.00 | 0.00 | 35 | 1010.6 |
| 20260504190330 | 23 | 152 | 1.6 | 14.5 | 0.00 | 0.00 | 0.00 | 34 | 1010.6 |
| 20260504185811 | 23 | 69 | 3.2 | 14.5 | 0.00 | 0.00 | 0.00 | 34 | 1010.7 |
| 20260504185317 | 23 | 326 | 3.2 | 8.0 | 0.00 | 0.00 | 0.00 | 35 | 1010.7 |
| 20260504184822 | 23 | 94 | 3.2 | 12.9 | 0.00 | 0.00 | 0.00 | 35 | 1010.8 |
| 20260504184325 | 23 | 259 | 3.2 | 12.9 | 0.00 | 0.00 | 0.00 | 35 | 1010.9 |
| 20260504183828 | 23 | 28 | 1.6 | 11.3 | 0.00 | 0.00 | 0.00 | 36 | 1011.0 |
| 20260504183311 | 22 | 312 | 3.2 | 12.9 | 0.00 | 0.00 | 0.00 | 36 | 1011.1 |
| 20260504182815 | 22 | 354 | 4.8 | 12.9 | 0.00 | 0.00 | 0.00 | 36 | 1011.0 |
| 20260504182319 | 22 | 259 | 4.8 | 11.3 | 0.00 | 0.00 | 0.00 | 35 | 1011.2 |
| 20260504181819 | 22 | 4 | 4.8 | 14.5 | 0.00 | 0.00 | 0.00 | 35 | 1011.3 |
| 20260504181322 | 22 | 58 | 4.8 | 14.5 | 0.00 | 0.00 | 0.00 | 35 | 1011.4 |
| 20260504180827 | 22 | 119 | 4.8 | 14.5 | 0.00 | 0.00 | 0.00 | 34 | 1011.6 |
| 20260504180330 | 22 | 184 | 3.2 | 11.3 | 0.00 | 0.00 | 0.00 | 39 | 1011.7 |
| 20260504175813 | 22 | 357 | 3.2 | 12.9 | 0.00 | 0.00 | 0.00 | 36 | 1011.6 |
| 20260504175337 | 22 | 356 | 3.2 | 22.5 | 0.00 | 0.00 | 0.00 | 36 | 1011.7 |
| 20260504174820 | 22 | 77 | 1.6 | 22.5 | 0.00 | 0.00 | 0.00 | 35 | 1011.7 |
| 20260504174324 | 22 | 353 | 4.8 | 16.1 | 0.00 | 0.00 | 0.00 | 34 | 1011.9 |
| 20260504173829 | 22 | 137 | 3.2 | 16.1 | 0.00 | 0.00 | 0.00 | 36 | 1011.9 |
| 20260504173313 | 22 | 22 | 4.8 | 16.1 | 0.00 | 0.00 | 0.00 | 37 | 1011.9 |
| 20260504172816 | 21 | 44 | 4.8 | 22.5 | 0.00 | 0.00 | 0.00 | 35 | 1012.0 |
| 20260504172320 | 22 | 359 | 6.4 | 22.5 | 0.00 | 0.00 | 0.00 | 34 | 1012.1 |
| 20260504171824 | 21 | 31 | 4.8 | 12.9 | 0.00 | 0.00 | 0.00 | 35 | 1012.1 |
| 20260504171347 | 21 | 30 | 4.8 | 11.3 | 0.00 | 0.00 | 0.00 | 35 | 1012.1 |
| 20260504170831 | 22 | 11 | 4.8 | 11.3 | 0.00 | 0.00 | 0.00 | 36 | 1012.3 |
| 20260504170314 | 21 | 196 | 3.2 | 11.3 | 0.00 | 0.00 | 0.00 | 37 | 1012.3 |
| 20260504160320 | 20 | 270 | 3.2 | 14.5 | 0.00 | 0.00 | 0.00 | 38 | 1013.3 |
| 20260504150822 | 19 | 313 | 1.6 | 8.0 | 0.00 | 0.00 | 0.00 | 46 | 1013.5 |
| 20260504150326 | 19 | 303 | 1.6 | 8.0 | 0.00 | 0.00 | 0.00 | 47 | 1013.6 |
| 20260504141323 | 17 | 5 | 1.6 | 8.0 | 0.00 | 0.00 | 0.00 | 54 | 1013.7 |
| 20260504140829 | 17 | 148 | 1.6 | 9.7 | 0.00 | 0.00 | 0.00 | 55 | 1013.7 |
| 20260504140352 | 17 | 8 | 3.2 | 9.7 | 0.00 | 0.00 | 0.00 | 54 | 1013.8 |
| 20260504130353 | 15 | 156 | 1.6 | 12.9 | 0.00 | 0.00 | 0.00 | 64 | 1014.2 |
| 20260504120314 | 11 | 216 | 0.0 | 6.4 | 0.00 | 0.00 | 0.00 | 82 | 1014.5 |
| 20260504110316 | 10 | 174 | 0.0 | 0.0 | 0.00 | 0.00 | 0.00 | 82 | 1014.8 |
| 20260504100320 | 9 | 183 | 1.6 | 4.8 | 0.00 | 0.00 | 0.00 | 81 | 1014.9 |